Location: 81360 Arifat, France
(43.7204°N, 2.3408°E)
Time: 09:13:00
(UTC+01:00)

Transit 2A - All Passes

Search period start: 14 December 2025 00:00
Search period end: 24 December 2025 00:00
Orbit: 589 x 955 km, 66.7° (Epoch: 13 December)

Date Brightness Start Highest point End Pass type
(mag) Time Alt. Az. Time Alt. Az. Time Alt. Az.
14 Dec - 04:59:55 10° SSW 05:05:11 56° ESE 05:11:00 10° NE visible
14 Dec - 06:43:46 10° WSW 06:48:40 30° NW 06:53:57 10° NNE visible
14 Dec - 08:33:30 10° NNW 08:33:58 10° NNW 08:34:26 10° NNW daylight
14 Dec - 12:02:10 10° N 12:06:21 18° NNE 12:10:28 10° ENE daylight
14 Dec - 13:44:23 10° NNW 13:50:43 65° NE 13:56:50 10° SE daylight
14 Dec - 15:28:23 10° NW 15:33:21 25° WSW 15:38:09 10° SSW daylight
15 Dec - 04:24:08 10° S 04:29:04 38° ESE 04:34:29 10° NE visible
15 Dec - 06:06:56 10° WSW 06:12:08 40° NW 06:17:50 10° NNE visible
15 Dec - 07:54:44 10° NW 07:57:05 12° NNW 07:59:30 10° N daylight
15 Dec - 11:26:17 10° N 11:29:34 14° NNE 11:32:50 10° ENE daylight
15 Dec - 13:08:12 10° NNW 13:14:19 47° NE 13:20:15 10° SE daylight
15 Dec - 14:51:39 10° NW 14:57:19 36° WSW 15:02:47 10° S daylight
16 Dec - 03:48:40 10° SSE 03:53:03 26° ESE 03:57:47 10° NE visible
16 Dec - 05:30:17 10° SW 05:35:42 55° NW 05:41:40 10° NNE visible
16 Dec - 07:16:56 10° WNW 07:20:17 15° NNW 07:23:45 10° N visible
16 Dec - 10:50:36 10° N 10:52:44 12° NNE 10:54:51 10° NE daylight
16 Dec - 12:32:04 10° NNW 12:37:50 35° NE 12:43:28 10° ESE daylight
16 Dec - 14:15:06 10° NW 14:21:13 52° WSW 14:27:04 10° S daylight
17 Dec - 03:13:41 10° SE 03:17:07 17° ESE 03:20:42 10° ENE visible
17 Dec - 04:53:51 10° SW 04:59:21 78° WNW 05:05:26 10° NNE visible
17 Dec - 06:39:28 10° W 06:43:32 19° NW 06:47:50 10° N visible
17 Dec - 11:55:59 10° NNW 12:01:16 27° NE 12:06:28 10° E daylight
17 Dec - 13:38:41 10° NW 13:45:02 74° WSW 13:51:06 10° SSE daylight
17 Dec - 15:24:44 10° WNW 15:27:01 12° W 15:29:16 10° WSW daylight
18 Dec - 02:40:09 10° ESE 02:41:14 11° E 02:42:20 10° E night (unlit)
18 Dec - 04:17:38 10° SSW 04:23:05 74° ESE 04:29:06 10° NE visible
18 Dec - 06:02:13 10° W 06:06:52 25° NW 06:11:49 10° NNE visible
18 Dec - 11:19:57 10° N 11:24:38 21° NE 11:29:15 10° E daylight
18 Dec - 13:02:22 10° NNW 13:08:46 81° ENE 13:14:53 10° SE daylight
18 Dec - 14:46:57 10° WNW 14:51:07 19° WSW 14:55:10 10° SW daylight
19 Dec - 03:41:40 10° S 03:46:55 50° ESE 03:52:41 10° NE visible
19 Dec - 05:25:13 10° WSW 05:30:16 32° NW 05:35:44 10° NNE visible
19 Dec - 07:14:02 10° NW 07:15:29 11° NNW 07:16:57 10° N visible
19 Dec - 10:43:59 10° N 10:47:54 17° NNE 10:51:48 10° ENE daylight
19 Dec - 12:26:08 10° NNW 12:32:25 59° NE 12:38:27 10° SE daylight
19 Dec - 14:09:57 10° NW 14:15:08 27° WSW 14:20:08 10° SSW daylight
20 Dec - 03:05:57 10° S 03:10:49 34° ESE 03:16:08 10° NE visible
20 Dec - 04:48:26 10° WSW 04:53:46 44° NW 04:59:36 10° NNE visible
20 Dec - 06:35:51 10° NW 06:38:37 13° NNW 06:41:27 10° N visible
20 Dec - 10:08:07 10° N 10:11:06 13° NNE 10:14:05 10° NE daylight
20 Dec - 11:49:57 10° NNW 11:55:59 43° NE 12:01:49 10° ESE daylight
20 Dec - 13:33:16 10° NW 13:39:05 40° WSW 13:44:39 10° S daylight
21 Dec - 02:30:36 10° SSE 02:34:49 23° ESE 02:39:20 10° NE night (unlit)
21 Dec - 04:11:51 10° SW 04:17:21 61° NW 04:23:25 10° NNE visible
21 Dec - 05:58:10 10° WNW 06:01:49 16° NNW 06:05:36 10° N visible
21 Dec - 09:32:33 10° N 09:34:14 11° NNE 09:35:56 10° NE daylight
21 Dec - 11:13:49 10° NNW 11:19:28 32° NE 11:24:57 10° ESE daylight
21 Dec - 12:56:46 10° NW 13:02:57 57° WSW 13:08:51 10° SSE daylight
22 Dec - 01:55:49 10° SE 01:58:53 15° ESE 02:02:05 10° ENE night (unlit)
22 Dec - 03:35:28 10° SSW 03:41:01 86° WNW 03:47:09 10° NNE visible
22 Dec - 05:20:46 10° W 05:25:06 21° NW 05:29:39 10° N visible
22 Dec - 10:37:44 10° NNW 10:42:52 25° NE 10:47:53 10° E daylight
22 Dec - 12:20:22 10° NNW 12:26:45 81° WSW 12:32:48 10° SSE daylight
22 Dec - 14:05:51 10° WNW 14:08:49 14° W 14:11:43 10° SW daylight
23 Dec - 02:59:19 10° SSW 03:04:46 67° ESE 03:10:48 10° NE visible
23 Dec - 04:43:36 10° W 04:48:27 27° NW 04:53:36 10° NNE visible
23 Dec - 10:01:43 10° N 10:06:12 20° NE 10:10:36 10° E daylight
23 Dec - 11:44:05 10° NNW 11:50:26 74° ENE 11:56:31 10° SE daylight
23 Dec - 13:28:24 10° WNW 13:32:53 21° WSW 13:37:14 10° SSW daylight
